Regional Weather Roundup
Issued by NWS Sterling, VA

Home | Current Version | Previous Version | Graphics & Text | Print | Product List | Glossary On
Versions: 1 2 3 4 5 6 7 8 9 10 11 12 13 14 15 16 17 18 19 20 21 22 23 24 25 26 27 28
000
ASUS41 KLWX 241511
RWRLWX

REGIONAL WEATHER ROUNDUP
NATIONAL WEATHER SERVICE BALTIMORE MD/WASHINGTON DC
1100 AM EDT SAT JUN 24 2017

Note: "FAIR" indicates few or no clouds below 12,000 feet
with no significant weather and/or obstructions to visibility.
 TC=TEMPERATURE CELSIUS

 * =Non NWS site. Station does not report precipitation (e.g. rain,
    snow, etc.), thunder, or fog.

DCZ001-MDZ009-015-VAZ040>042-051-053>054-241600-
WASHINGTON METRO

CITY           SKY/WX    TMP DP  RH WIND       PRES   REMARKS
WASHINGTON NAT CLOUDY    82  64  54 NW20G26   29.85R
DULLES         MOSUNNY   81  64  56 NW17      29.86R
ANDREWS AFB    PTSUNNY   81  63  54 W15G24    29.84R
FT BELVOIR     MOSUNNY   83  64  52 W14G21    29.84R
QUANTICO       LGT RAIN  85  65  51 NW14      29.86R
COLLEGE PARK*  PTSUNNY   80  63  56 W8G20     29.84R
LEESBURG*      MOSUNNY  N/A N/A N/A NW15G22   29.88R
MANASSAS*      MOSUNNY   83  66  56 W17       29.86R
GAITHERSBURG*  MOSUNNY   78  64  61 NW14G22   29.87R

$$

MDZ006>007-011-014-241600-
BALTIMORE METRO

CITY           SKY/WX    TMP DP  RH WIND       PRES   REMARKS
BWI AIRPORT    MOSUNNY   81  65  58 W18G25    29.82R
MD SCIENCE CTR   N/A     83  63  50 MISG      29.81R
MARTIN STATE   MOSUNNY   82  66  57 W20G31    29.81R
ANNAPOLIS      PTSUNNY   80  68  66 NW10      29.83R
FORT MEADE*    MOSUNNY   79  63  57 W13G25    29.86R

$$

MDZ012-015-019>023-241600-
MARYLAND EASTERN SHORE

CITY           SKY/WX    TMP DP  RH WIND       PRES   REMARKS
OCEAN CITY     PTSUNNY   80  69  69 W16G26    29.82R
SALISBURY      PTSUNNY   81  68  64 W18G28    29.82R
BAY BRIDGE AP* MOSUNNY   82  66  57 NW15G30   29.82R
CAMBRIDGE*     MOSUNNY   82  68  61 NW13G26   29.82R
EASTON*        SUNNY     82  66  57 NW15      29.85R

$$

MDZ017>025-241600-
SOUTHERN MARYLAND

CITY           SKY/WX    TMP DP  RH WIND       PRES   REMARKS
PATUXENT RIVER PTSUNNY   84  65  52 NW16G28   29.83R
ST INIGOES     SUNNY     83  68  60 W12G20    29.84R
LEONARDTOWN*   PTSUNNY   81  64  57 W13G21    29.86R

$$

MDZ003>005-241600-
NORTH CENTRAL MARYLAND

CITY           SKY/WX    TMP DP  RH WIND       PRES   REMARKS
FREDERICK*     MOSUNNY   82  59  44 NW18      29.87R
HAGERSTOWN APT MOSUNNY   79  60  52 W18       29.86R
WESTMINSTER*   SUNNY     81  57  44 NW16G26   29.85R

$$

MDZ501>502-241600-
WESTERN MARYLAND

CITY           SKY/WX    TMP DP  RH WIND       PRES   REMARKS
OAKLAND*       NOT AVBL
CUMBERLAND*    MOSUNNY   77  57  50 W10       29.93R

$$

VAZ025>031-241600-
SHENANDOAH VALLEY

CITY           SKY/WX    TMP DP  RH WIND       PRES   REMARKS
WINCHESTER*    PTSUNNY   75  59  57 W16       29.90R
FRONT ROYAL*   MOSUNNY   79  55  44 NW12      29.89R
LURAY*         MOSUNNY   79  61  53 W13       29.91R
NEW MARKET*    SUNNY     78  52  40 W8        29.92R
STAUNTON*      PTSUNNY   76  62  62 W5        29.95R
WAYNESBORO*    SUNNY     75  63  66 W12G21    29.95R

$$

WVZ021-048>050-054>055-241600-
EASTERN WEST VIRGINIA PANHANDLE

CITY           SKY/WX    TMP DP  RH WIND       PRES   REMARKS
MARTINSBURG    PTSUNNY   78  59  51 W14G22    29.87R
PETERSBURG*    PTSUNNY   76  60  57 W9        29.95R

$$

VAZ036>039-050-241600-
CENTRAL FOOTHILLS

CITY           SKY/WX    TMP DP  RH WIND       PRES   REMARKS
CHARLOTTESVILL SUNNY     83  64  52 VRB6      29.89R
CULPEPER*      MOSUNNY   82  65  54 NW7       29.88R
ORANGE*        SUNNY     81  63  54 W10       29.88R
GORDONSVILLE*  SUNNY     82  65  55 W6        29.88R
WARRENTON*     PTSUNNY   84  61  44 NW13      29.86R

$$

VAZ055>057-241600-
NORTH AND CENTRAL PIEDMONT

CITY           SKY/WX    TMP DP  RH WIND       PRES   REMARKS
FREDERICKSBRG* MOSUNNY   84  65  54 W9G17     29.86R
STAFFORD*      MOSUNNY   83  66  56 W6        29.90R

$$

NCZ024-NYZ072-PAZ021-071-VAZ022-071-241600-
OTHER REGIONAL OBSERVATIONS

CITY           SKY/WX    TMP DP  RH WIND       PRES   REMARKS
NEW YORK CITY  MOSUNNY   78  69  73 W7        29.68R
PHILADELPHIA   PTSUNNY   82  66  58 NW18G28   29.75R
PITTSBURGH     MOSUNNY   73  58  59 W8        29.90R
ROANOKE        PTSUNNY   78  63  59 NW10      29.98R
RICHMOND       MOSUNNY   85  64  49 NW15      29.88R
RALEIGH        PTSUNNY   85  71  63 SW8       29.95R HX  90

$$

ANZ530>537-241600-
MARINE OBSERVATIONS

STATION/POSITION TIME  TEMP    WIND        PRES
                       AIR SEA DIR/SP/G
                 (UTC) (F)     (DEG/KT/KT) (MB)
THOMAS PT LIGHT  1500   79 77  320/ 17/ 20   N/A
BALT KEY BRIDGE  1448   79     290/ 20/ 26 1009.0R
COVE POINT       1448   80     330/ 16/ 24 1010.8R
LEWISETTA        1448   82 78  280/ 10/ 17 1010.6R
SOLOMONS ISLAND  1448   81 76  290/ 10/ 17   N/A
PINEY POINT      1448          320/ 13/ 16   N/A

$$





USA.gov is the U.S. government's official web portal to all federal, state and local government web resources and services.